Time,TemperatureF,DewpointF,PressureIn,WindDirection,WindDirectionDegrees,WindSpeedMPH,WindSpeedGustMPH,Humidity,HourlyPrecipIn,Conditions,Clouds,dailyrainin,SoftwareType,DateUTC
2013-07-13 00:01:00,64.2,51.8,30.26,North,0,0.0,0.0,64,0.00,,SKC,0.00,VWS V14.01,2013-07-13 04:01:00,
2013-07-13 00:02:00,64.2,51.8,30.26,North,0,0.0,0.0,64,0.00,,SKC,0.00,VWS V14.01,2013-07-13 04:02:00,
2013-07-13 00:07:00,63.6,51.2,30.26,North,0,0.0,0.0,64,0.00,,SKC,0.00,VWS V14.01,2013-07-13 04:07:00,
2013-07-13 00:12:00,63.3,50.9,30.26,North,0,0.0,0.0,64,0.00,,SKC,0.00,VWS V14.01,2013-07-13 04:12:00,
2013-07-13 00:17:00,63.1,50.7,30.26,North,0,0.0,0.0,64,0.00,,SKC,0.00,VWS V14.01,2013-07-13 04:17:00,
2013-07-13 00:22:00,62.4,50.5,30.26,North,0,0.0,0.0,65,0.00,,SKC,0.00,VWS V14.01,2013-07-13 04:22:00,
2013-07-13 00:27:00,62.2,50.3,30.27,North,0,0.0,0.0,65,0.00,,SKC,0.00,VWS V14.01,2013-07-13 04:27:00,
2013-07-13 00:32:00,62.0,50.1,30.27,North,0,0.0,0.0,65,0.00,,SKC,0.00,VWS V14.01,2013-07-13 04:32:00,
2013-07-13 00:37:00,61.7,49.8,30.26,North,0,0.0,0.0,65,0.00,,SKC,0.00,VWS V14.01,2013-07-13 04:37:00,
2013-07-13 00:42:00,61.8,49.9,30.26,North,0,0.0,0.0,65,0.00,,SKC,0.00,VWS V14.01,2013-07-13 04:42:00,
2013-07-13 00:47:00,61.7,49.8,30.26,North,0,0.0,0.0,65,0.00,,SKC,0.00,VWS V14.01,2013-07-13 04:47:00,
2013-07-13 00:52:00,61.1,49.7,30.26,North,0,0.0,0.0,66,0.00,,SKC,0.00,VWS V14.01,2013-07-13 04:52:00,
2013-07-13 00:57:00,60.9,49.5,30.26,North,0,0.0,0.0,66,0.00,,SKC,0.00,VWS V14.01,2013-07-13 04:57:00,
2013-07-13 01:02:00,60.8,49.8,30.26,North,0,0.0,0.0,67,0.00,,SKC,0.00,VWS V14.01,2013-07-13 05:02:00,
2013-07-13 01:07:00,60.0,49.4,30.26,North,0,0.0,0.0,68,0.00,,SKC,0.00,VWS V14.01,2013-07-13 05:07:00,
2013-07-13 01:12:00,59.3,49.1,30.26,North,0,0.0,0.0,69,0.00,,SKC,0.00,VWS V14.01,2013-07-13 05:12:00,
2013-07-13 01:17:00,59.1,49.0,30.26,North,0,0.0,0.0,69,0.00,,SKC,0.00,VWS V14.01,2013-07-13 05:17:00,
2013-07-13 01:22:00,58.8,48.7,30.26,North,0,0.0,0.0,69,0.00,,SKC,0.00,VWS V14.01,2013-07-13 05:22:00,
2013-07-13 01:27:00,58.6,48.5,30.26,North,0,0.0,0.0,69,0.00,,SKC,0.00,VWS V14.01,2013-07-13 05:27:00,
2013-07-13 01:32:00,58.6,48.5,30.26,North,0,0.0,0.0,69,0.00,,SKC,0.00,VWS V14.01,2013-07-13 05:32:00,
2013-07-13 01:37:00,58.4,48.3,30.26,North,0,0.0,0.0,69,0.00,,SKC,0.00,VWS V14.01,2013-07-13 05:37:00,
2013-07-13 01:42:00,58.1,48.0,30.26,North,0,0.0,0.0,69,0.00,,SKC,0.00,VWS V14.01,2013-07-13 05:42:00,
2013-07-13 01:47:00,57.9,47.8,30.25,North,0,0.0,0.0,69,0.00,,SKC,0.00,VWS V14.01,2013-07-13 05:47:00,
2013-07-13 01:52:00,57.7,48.0,30.26,North,0,0.0,0.0,70,0.00,,SKC,0.00,VWS V14.01,2013-07-13 05:52:00,
2013-07-13 01:57:00,57.3,47.6,30.26,North,0,0.0,0.0,70,0.00,,SKC,0.00,VWS V14.01,2013-07-13 05:57:00,
2013-07-13 02:02:00,57.0,47.3,30.26,North,0,0.0,0.0,70,0.00,,SKC,0.00,VWS V14.01,2013-07-13 06:02:00,
2013-07-13 02:07:00,56.8,47.1,30.26,North,0,0.0,0.0,70,0.00,,SKC,0.00,VWS V14.01,2013-07-13 06:07:00,
2013-07-13 02:12:00,56.3,47.0,30.26,North,0,0.0,0.0,71,0.00,,SKC,0.00,VWS V14.01,2013-07-13 06:12:00,
2013-07-13 02:17:00,56.1,47.2,30.26,North,0,0.0,0.0,72,0.00,,SKC,0.00,VWS V14.01,2013-07-13 06:17:00,
2013-07-13 02:23:00,55.9,47.0,30.25,North,0,0.0,0.0,72,0.00,,SKC,0.00,VWS V14.01,2013-07-13 06:23:00,
2013-07-13 02:28:00,55.5,46.6,30.25,North,0,0.0,0.0,72,0.00,,SKC,0.00,VWS V14.01,2013-07-13 06:28:00,
2013-07-13 02:33:00,55.2,46.3,30.25,North,0,0.0,0.0,72,0.00,,SKC,0.00,VWS V14.01,2013-07-13 06:33:00,
2013-07-13 02:38:00,55.2,46.7,30.26,North,0,0.0,0.0,73,0.00,,SKC,0.00,VWS V14.01,2013-07-13 06:38:00,
2013-07-13 02:43:00,55.0,46.5,30.26,North,0,0.0,0.0,73,0.00,,SKC,0.00,VWS V14.01,2013-07-13 06:43:00,
2013-07-13 02:48:00,55.0,46.5,30.26,North,0,0.0,0.0,73,0.00,,SKC,0.00,VWS V14.01,2013-07-13 06:48:00,
2013-07-13 02:53:00,54.8,46.3,30.26,North,0,0.0,0.0,73,0.00,,SKC,0.00,VWS V14.01,2013-07-13 06:53:00,
2013-07-13 02:58:00,54.8,46.3,30.27,North,0,0.0,0.0,73,0.00,,SKC,0.00,VWS V14.01,2013-07-13 06:58:00,
2013-07-13 03:03:00,54.6,46.1,30.26,North,0,0.0,0.0,73,0.00,,SKC,0.00,VWS V14.01,2013-07-13 07:03:00,
2013-07-13 03:08:00,54.3,45.8,30.26,North,0,0.0,0.0,73,0.00,,SKC,0.00,VWS V14.01,2013-07-13 07:08:00,
2013-07-13 03:13:00,53.9,45.8,30.26,North,0,0.0,0.0,74,0.00,,SKC,0.00,VWS V14.01,2013-07-13 07:13:00,
2013-07-13 03:18:00,53.4,45.3,30.26,North,0,0.0,0.0,74,0.00,,SKC,0.00,VWS V14.01,2013-07-13 07:18:00,
2013-07-13 03:23:00,53.2,45.1,30.26,North,0,0.0,0.0,74,0.00,,SKC,0.00,VWS V14.01,2013-07-13 07:23:00,
2013-07-13 03:28:00,53.0,45.0,30.26,North,0,0.0,0.0,74,0.00,,SKC,0.00,VWS V14.01,2013-07-13 07:28:00,
2013-07-13 03:33:00,52.5,44.8,30.26,North,0,0.0,0.0,75,0.00,,SKC,0.00,VWS V14.01,2013-07-13 07:33:00,
2013-07-13 03:38:00,52.1,44.4,30.27,North,0,0.0,0.0,75,0.00,,SKC,0.00,VWS V14.01,2013-07-13 07:38:00,
2013-07-13 03:43:00,51.9,44.6,30.27,North,0,0.0,0.0,76,0.00,,SKC,0.00,VWS V14.01,2013-07-13 07:43:00,
2013-07-13 03:48:00,51.4,44.1,30.27,North,0,0.0,0.0,76,0.00,,SKC,0.00,VWS V14.01,2013-07-13 07:48:00,
2013-07-13 03:53:00,51.2,43.9,30.27,North,0,0.0,0.0,76,0.00,,SKC,0.00,VWS V14.01,2013-07-13 07:53:00,
2013-07-13 03:58:00,50.9,43.6,30.27,North,0,0.0,0.0,76,0.00,,SKC,0.00,VWS V14.01,2013-07-13 07:58:00,
2013-07-13 04:03:00,50.5,43.6,30.26,North,0,0.0,0.0,77,0.00,,SKC,0.00,VWS V14.01,2013-07-13 08:03:00,
2013-07-13 04:08:00,50.3,43.4,30.26,North,0,0.0,0.0,77,0.00,,SKC,0.00,VWS V14.01,2013-07-13 08:08:00,
2013-07-13 04:14:00,50.3,43.4,30.26,North,0,0.0,0.0,77,0.00,,SKC,0.00,VWS V14.01,2013-07-13 08:14:00,
2013-07-13 04:19:00,50.0,43.1,30.27,North,0,0.0,0.0,77,0.00,,SKC,0.00,VWS V14.01,2013-07-13 08:19:00,
2013-07-13 04:24:00,49.8,43.2,30.27,North,0,0.0,0.0,78,0.00,,SKC,0.00,VWS V14.01,2013-07-13 08:24:00,
2013-07-13 04:29:00,49.6,43.0,30.27,North,0,0.0,0.0,78,0.00,,SKC,0.00,VWS V14.01,2013-07-13 08:29:00,
2013-07-13 04:34:00,49.2,42.6,30.27,North,0,0.0,0.0,78,0.00,,SKC,0.00,VWS V14.01,2013-07-13 08:34:00,
2013-07-13 04:39:00,49.2,42.6,30.27,North,0,0.0,0.0,78,0.00,,SKC,0.00,VWS V14.01,2013-07-13 08:39:00,
2013-07-13 04:44:00,49.1,42.2,30.27,North,0,0.0,0.0,77,0.00,,SKC,0.00,VWS V14.01,2013-07-13 08:44:00,
2013-07-13 04:49:00,48.9,42.7,30.28,North,0,0.0,0.0,79,0.00,,SKC,0.00,VWS V14.01,2013-07-13 08:49:00,
2013-07-13 04:54:00,48.9,42.7,30.27,North,0,0.0,0.0,79,0.00,,SKC,0.00,VWS V14.01,2013-07-13 08:54:00,
2013-07-13 04:59:00,48.7,42.5,30.27,North,0,0.0,0.0,79,0.00,,SKC,0.00,VWS V14.01,2013-07-13 08:59:00,
2013-07-13 05:04:00,48.3,42.1,30.27,North,0,0.0,0.0,79,0.00,,SKC,0.00,VWS V14.01,2013-07-13 09:04:00,
2013-07-13 05:09:00,48.2,42.0,30.27,North,0,0.0,0.0,79,0.00,,SKC,0.00,VWS V14.01,2013-07-13 09:09:00,
2013-07-13 05:14:00,47.6,41.4,30.28,North,0,0.0,0.0,79,0.00,,SKC,0.00,VWS V14.01,2013-07-13 09:14:00,
2013-07-13 05:19:00,47.3,41.1,30.28,North,0,0.0,0.0,79,0.00,,SKC,0.00,VWS V14.01,2013-07-13 09:19:00,
2013-07-13 05:24:00,47.1,40.9,30.28,North,0,0.0,0.0,79,0.00,,SKC,0.00,VWS V14.01,2013-07-13 09:24:00,
2013-07-13 05:29:00,47.1,41.3,30.29,North,0,0.0,0.0,80,0.00,,SKC,0.00,VWS V14.01,2013-07-13 09:29:00,
2013-07-13 05:34:00,46.9,41.1,30.29,North,0,0.0,0.0,80,0.00,,SKC,0.00,VWS V14.01,2013-07-13 09:34:00,
2013-07-13 05:39:00,46.5,40.7,30.29,North,0,0.0,0.0,80,0.00,,SKC,0.00,VWS V14.01,2013-07-13 09:39:00,
2013-07-13 05:44:00,46.2,40.4,30.30,North,0,0.0,0.0,80,0.00,,SKC,0.00,VWS V14.01,2013-07-13 09:44:00,
2013-07-13 05:49:00,46.0,40.2,30.29,North,0,0.0,0.0,80,0.00,,SKC,0.00,VWS V14.01,2013-07-13 09:49:00,
2013-07-13 05:54:00,45.8,40.0,30.29,North,0,0.0,0.0,80,0.00,,SKC,0.00,VWS V14.01,2013-07-13 09:54:00,
2013-07-13 05:59:00,45.5,39.7,30.29,North,0,0.0,0.0,80,0.00,,SKC,0.00,VWS V14.01,2013-07-13 09:59:00,
2013-07-13 06:04:00,45.3,39.8,30.30,North,0,0.0,0.0,81,0.00,,SKC,0.00,VWS V14.01,2013-07-13 10:04:00,
2013-07-13 06:09:00,44.9,39.4,30.30,North,0,0.0,0.0,81,0.00,,SKC,0.00,VWS V14.01,2013-07-13 10:09:00,
2013-07-13 06:14:00,44.7,39.2,30.30,North,0,0.0,0.0,81,0.00,,SKC,0.00,VWS V14.01,2013-07-13 10:14:00,
2013-07-13 06:19:00,44.7,39.2,30.30,North,0,0.0,0.0,81,0.00,,SKC,0.00,VWS V14.01,2013-07-13 10:19:00,
2013-07-13 06:24:00,44.2,38.8,30.30,North,0,0.0,0.0,81,0.00,,SKC,0.00,VWS V14.01,2013-07-13 10:24:00,
2013-07-13 06:29:00,44.2,38.8,30.31,North,0,0.0,0.0,81,0.00,,SKC,0.00,VWS V14.01,2013-07-13 10:29:00,
2013-07-13 06:35:00,43.7,38.3,30.30,North,0,0.0,0.0,81,0.00,,SKC,0.00,VWS V14.01,2013-07-13 10:35:00,
2013-07-13 06:40:00,43.5,38.1,30.30,North,0,0.0,0.0,81,0.00,,SKC,0.00,VWS V14.01,2013-07-13 10:40:00,
2013-07-13 06:45:00,43.5,38.4,30.30,North,0,0.0,0.0,82,0.00,,SKC,0.00,VWS V14.01,2013-07-13 10:45:00,
2013-07-13 06:50:00,43.3,38.2,30.30,North,0,0.0,0.0,82,0.00,,SKC,0.00,VWS V14.01,2013-07-13 10:50:00,
2013-07-13 06:55:00,43.1,38.0,30.30,North,0,0.0,0.0,82,0.00,,SKC,0.00,VWS V14.01,2013-07-13 10:55:00,
2013-07-13 07:00:00,43.1,38.0,30.30,North,0,0.0,0.0,82,0.00,,SKC,0.00,VWS V14.01,2013-07-13 11:00:00,
2013-07-13 07:05:00,43.1,38.0,30.30,North,0,0.0,0.0,82,0.00,,SKC,0.00,VWS V14.01,2013-07-13 11:05:00,
2013-07-13 07:10:00,43.1,38.0,30.30,North,0,0.0,0.0,82,0.00,,SKC,0.00,VWS V14.01,2013-07-13 11:10:00,
2013-07-13 07:15:00,43.1,38.0,30.30,North,0,0.0,0.0,82,0.00,,SKC,0.00,VWS V14.01,2013-07-13 11:15:00,
2013-07-13 07:20:00,43.3,38.2,30.30,North,0,0.0,0.0,82,0.00,,SKC,0.00,VWS V14.01,2013-07-13 11:20:00,
2013-07-13 07:25:00,43.3,38.2,30.30,North,0,0.0,0.0,82,0.00,,SKC,0.00,VWS V14.01,2013-07-13 11:25:00,
2013-07-13 07:30:00,43.5,38.4,30.30,North,0,0.0,0.0,82,0.00,,SKC,0.00,VWS V14.01,2013-07-13 11:30:00,
2013-07-13 07:35:00,43.7,38.3,30.30,North,0,0.0,0.0,81,0.00,,SKC,0.00,VWS V14.01,2013-07-13 11:35:00,
2013-07-13 07:40:00,43.7,38.6,30.30,North,0,0.0,0.0,82,0.00,,SKC,0.00,VWS V14.01,2013-07-13 11:40:00,
2013-07-13 07:45:00,44.0,38.5,30.30,North,0,0.0,0.0,81,0.00,,SKC,0.00,VWS V14.01,2013-07-13 11:45:00,
2013-07-13 07:50:00,44.0,38.5,30.30,North,0,0.0,0.0,81,0.00,,SKC,0.00,VWS V14.01,2013-07-13 11:50:00,
2013-07-13 07:55:00,44.0,38.5,30.30,North,0,0.0,0.0,81,0.00,,SKC,0.00,VWS V14.01,2013-07-13 11:55:00,
2013-07-13 08:00:00,43.8,38.0,30.30,North,0,0.0,0.0,80,0.00,,SKC,0.00,VWS V14.01,2013-07-13 12:00:00,
2013-07-13 08:05:00,44.2,38.4,30.30,North,0,0.0,0.0,80,0.00,,SKC,0.00,VWS V14.01,2013-07-13 12:05:00,
2013-07-13 08:10:00,44.0,38.2,30.30,North,0,0.0,0.0,80,0.00,,SKC,0.00,VWS V14.01,2013-07-13 12:10:00,
2013-07-13 08:15:00,44.2,38.4,30.30,North,0,0.0,0.0,80,0.00,,SKC,0.00,VWS V14.01,2013-07-13 12:15:00,
2013-07-13 08:20:00,44.9,38.8,30.31,North,0,0.0,0.0,79,0.00,,SKC,0.00,VWS V14.01,2013-07-13 12:20:00,
2013-07-13 08:25:00,45.3,39.2,30.30,North,0,0.0,0.0,79,0.00,,SKC,0.00,VWS V14.01,2013-07-13 12:25:00,
2013-07-13 08:30:00,46.5,40.0,30.31,North,0,0.0,0.0,78,0.00,,SKC,0.00,VWS V14.01,2013-07-13 12:30:00,
2013-07-13 08:35:00,47.8,41.3,30.31,North,0,0.0,0.0,78,0.00,,SKC,0.00,VWS V14.01,2013-07-13 12:35:00,
2013-07-13 08:40:00,50.1,42.2,30.30,North,0,0.0,0.0,74,0.00,,SKC,0.00,VWS V14.01,2013-07-13 12:40:00,
2013-07-13 08:45:00,51.2,42.9,30.31,North,0,0.0,0.0,73,0.00,,SKC,0.00,VWS V14.01,2013-07-13 12:45:00,
2013-07-13 08:50:00,52.7,43.6,30.30,North,0,0.0,0.0,71,0.00,,SKC,0.00,VWS V14.01,2013-07-13 12:50:00,
2013-07-13 08:55:00,55.7,46.1,30.30,North,0,0.0,0.0,70,0.00,,SKC,0.00,VWS V14.01,2013-07-13 12:55:00,
2013-07-13 09:00:00,57.3,46.5,30.31,North,0,0.0,0.0,67,0.00,,SKC,0.00,VWS V14.01,2013-07-13 13:00:00,
2013-07-13 09:05:00,59.3,47.5,30.31,North,0,0.0,0.0,65,0.00,,SKC,0.00,VWS V14.01,2013-07-13 13:05:00,
2013-07-13 09:10:00,62.0,49.3,30.31,North,0,0.0,0.0,63,0.00,,SKC,0.00,VWS V14.01,2013-07-13 13:10:00,
2013-07-13 09:15:00,63.6,50.4,30.30,North,0,0.0,0.0,62,0.00,,SKC,0.00,VWS V14.01,2013-07-13 13:15:00,
2013-07-13 09:20:00,64.9,51.2,30.30,North,0,0.0,0.0,61,0.00,,SKC,0.00,VWS V14.01,2013-07-13 13:20:00,
2013-07-13 09:25:00,66.7,51.9,30.31,North,0,0.0,0.0,59,0.00,,SKC,0.00,VWS V14.01,2013-07-13 13:25:00,
2013-07-13 09:30:00,67.8,51.5,30.31,North,0,0.0,0.0,56,0.00,,SKC,0.00,VWS V14.01,2013-07-13 13:30:00,
2013-07-13 09:35:00,68.7,51.9,30.31,North,0,0.0,0.0,55,0.00,,SKC,0.00,VWS V14.01,2013-07-13 13:35:00,
2013-07-13 09:40:00,69.9,50.4,30.31,North,0,0.0,0.0,50,0.00,,SKC,0.00,VWS V14.01,2013-07-13 13:40:00,
2013-07-13 09:45:00,70.5,50.4,30.31,North,0,0.0,0.0,49,0.00,,SKC,0.00,VWS V14.01,2013-07-13 13:45:00,
2013-07-13 09:46:00,70.5,50.4,30.31,North,0,0.0,0.0,49,0.00,,SKC,0.00,VWS V14.01,2013-07-13 13:46:00,
2013-07-13 09:51:00,71.2,51.1,30.31,North,0,0.0,0.0,49,0.00,,SKC,0.00,VWS V14.01,2013-07-13 13:51:00,
2013-07-13 09:56:00,71.9,51.2,30.31,North,0,0.0,0.0,48,0.00,,SKC,0.00,VWS V14.01,2013-07-13 13:56:00,
2013-07-13 10:01:00,72.5,51.2,30.31,North,0,0.0,0.0,47,0.00,,SKC,0.00,VWS V14.01,2013-07-13 14:01:00,
2013-07-13 10:06:00,73.2,52.4,30.31,North,0,0.0,0.0,48,0.00,,SKC,0.00,VWS V14.01,2013-07-13 14:06:00,
2013-07-13 10:11:00,73.7,51.1,30.31,North,0,0.0,0.0,45,0.00,,SKC,0.00,VWS V14.01,2013-07-13 14:11:00,
2013-07-13 10:16:00,74.3,52.2,30.31,North,0,0.0,0.0,46,0.00,,SKC,0.00,VWS V14.01,2013-07-13 14:16:00,
2013-07-13 10:21:00,74.8,51.5,30.31,North,0,0.0,0.0,44,0.00,,SKC,0.00,VWS V14.01,2013-07-13 14:21:00,
2013-07-13 10:26:00,75.3,51.9,30.31,North,0,0.0,0.0,44,0.00,,SKC,0.00,VWS V14.01,2013-07-13 14:26:00,
2013-07-13 10:31:00,75.7,51.6,30.31,North,0,0.0,0.0,43,0.00,,SKC,0.00,VWS V14.01,2013-07-13 14:31:00,
2013-07-13 10:36:00,76.2,52.7,30.32,North,0,0.0,0.0,44,0.00,,SKC,0.00,VWS V14.01,2013-07-13 14:36:00,
2013-07-13 10:41:00,76.4,51.0,30.31,North,0,0.0,0.0,41,0.00,,SKC,0.00,VWS V14.01,2013-07-13 14:41:00,
2013-07-13 10:46:00,76.8,53.3,30.31,North,0,0.0,0.0,44,0.00,,SKC,0.00,VWS V14.01,2013-07-13 14:46:00,
2013-07-13 10:51:00,77.7,53.5,30.31,North,0,0.0,0.0,43,0.00,,SKC,0.00,VWS V14.01,2013-07-13 14:51:00,
2013-07-13 10:56:00,78.2,53.2,30.31,North,0,0.0,0.0,42,0.00,,SKC,0.00,VWS V14.01,2013-07-13 14:56:00,
2013-07-13 11:01:00,79.3,54.2,30.31,North,0,0.0,0.0,42,0.00,,SKC,0.00,VWS V14.01,2013-07-13 15:01:00,
2013-07-13 11:06:00,80.0,54.2,30.31,North,0,0.0,0.0,41,0.00,,SKC,0.00,VWS V14.01,2013-07-13 15:06:00,
2013-07-13 11:11:00,80.2,53.7,30.30,North,0,0.0,0.0,40,0.00,,SKC,0.00,VWS V14.01,2013-07-13 15:11:00,
2013-07-13 11:16:00,80.4,52.5,30.30,North,0,0.0,0.0,38,0.00,,SKC,0.00,VWS V14.01,2013-07-13 15:16:00,
2013-07-13 11:21:00,80.6,54.8,30.30,North,0,0.0,0.0,41,0.00,,SKC,0.00,VWS V14.01,2013-07-13 15:21:00,
2013-07-13 11:26:00,80.9,53.7,30.30,North,0,0.0,0.0,39,0.00,,SKC,0.00,VWS V14.01,2013-07-13 15:26:00,
2013-07-13 11:31:00,81.3,53.3,30.31,North,0,0.0,0.0,38,0.00,,SKC,0.00,VWS V14.01,2013-07-13 15:31:00,
2013-07-13 11:36:00,81.3,53.3,30.31,North,0,0.0,0.0,38,0.00,,SKC,0.00,VWS V14.01,2013-07-13 15:36:00,
2013-07-13 11:41:00,81.5,52.7,30.31,North,0,0.0,0.0,37,0.00,,SKC,0.00,VWS V14.01,2013-07-13 15:41:00,
2013-07-13 11:46:00,81.1,51.7,30.30,North,0,0.0,0.0,36,0.00,,SKC,0.00,VWS V14.01,2013-07-13 15:46:00,
2013-07-13 11:51:00,80.9,52.2,30.30,North,0,0.0,0.0,37,0.00,,SKC,0.00,VWS V14.01,2013-07-13 15:51:00,
2013-07-13 11:56:00,81.3,53.3,30.31,North,0,0.0,0.0,38,0.00,,SKC,0.00,VWS V14.01,2013-07-13 15:56:00,
2013-07-13 12:01:00,81.5,53.5,30.30,North,0,0.0,0.0,38,0.00,,SKC,0.00,VWS V14.01,2013-07-13 16:01:00,
2013-07-13 12:06:00,81.8,52.3,30.30,North,0,0.0,0.0,36,0.00,,SKC,0.00,VWS V14.01,2013-07-13 16:06:00,
2013-07-13 12:11:00,82.5,54.4,30.31,North,0,0.0,0.0,38,0.00,,SKC,0.00,VWS V14.01,2013-07-13 16:11:00,
2013-07-13 12:16:00,82.7,54.5,30.31,North,0,0.0,0.0,38,0.00,,SKC,0.00,VWS V14.01,2013-07-13 16:16:00,
2013-07-13 12:21:00,82.9,52.5,30.31,North,0,0.0,0.0,35,0.00,,SKC,0.00,VWS V14.01,2013-07-13 16:21:00,
2013-07-13 12:26:00,83.3,54.3,30.31,North,0,0.0,0.0,37,0.00,,SKC,0.00,VWS V14.01,2013-07-13 16:26:00,
2013-07-13 12:31:00,83.3,52.0,30.31,North,0,0.0,0.0,34,0.00,,SKC,0.00,VWS V14.01,2013-07-13 16:31:00,
2013-07-13 12:36:00,83.4,53.7,30.30,North,0,0.0,0.0,36,0.00,,SKC,0.00,VWS V14.01,2013-07-13 16:36:00,
2013-07-13 12:41:00,84.2,52.0,30.30,North,0,0.0,0.0,33,0.00,,SKC,0.00,VWS V14.01,2013-07-13 16:41:00,
2013-07-13 12:47:00,84.3,51.3,30.30,North,0,0.0,0.0,32,0.00,,SKC,0.00,VWS V14.01,2013-07-13 16:47:00,
2013-07-13 12:52:00,84.3,49.5,30.30,North,0,0.0,0.0,30,0.00,,SKC,0.00,VWS V14.01,2013-07-13 16:52:00,
2013-07-13 12:57:00,83.8,49.1,30.30,North,0,0.0,0.0,30,0.00,,SKC,0.00,VWS V14.01,2013-07-13 16:57:00,
2013-07-13 13:02:00,83.8,49.1,30.30,North,0,0.0,0.0,30,0.00,,SKC,0.00,VWS V14.01,2013-07-13 17:02:00,
2013-07-13 13:07:00,84.3,51.3,30.30,North,0,0.0,0.0,32,0.00,,SKC,0.00,VWS V14.01,2013-07-13 17:07:00,
2013-07-13 13:12:00,84.9,51.8,30.31,North,0,0.0,0.0,32,0.00,,SKC,0.00,VWS V14.01,2013-07-13 17:12:00,
2013-07-13 13:17:00,85.1,52.0,30.31,North,0,0.0,0.0,32,0.00,,SKC,0.00,VWS V14.01,2013-07-13 17:17:00,
2013-07-13 13:22:00,85.4,51.4,30.31,North,0,0.0,0.0,31,0.00,,SKC,0.00,VWS V14.01,2013-07-13 17:22:00,
2013-07-13 13:27:00,86.1,52.0,30.31,North,0,0.0,0.0,31,0.00,,SKC,0.00,VWS V14.01,2013-07-13 17:27:00,
2013-07-13 13:32:00,86.3,53.0,30.30,North,0,0.0,0.0,32,0.00,,SKC,0.00,VWS V14.01,2013-07-13 17:32:00,
2013-07-13 13:37:00,86.7,53.3,30.31,North,0,0.0,0.0,32,0.00,,SKC,0.00,VWS V14.01,2013-07-13 17:37:00,
2013-07-13 13:42:00,86.7,51.6,30.31,North,0,0.0,0.0,30,0.00,,SKC,0.00,VWS V14.01,2013-07-13 17:42:00,
2013-07-13 13:47:00,86.3,49.4,30.30,North,0,0.0,0.0,28,0.00,,SKC,0.00,VWS V14.01,2013-07-13 17:47:00,
2013-07-13 13:52:00,86.1,51.1,30.31,North,0,0.0,0.0,30,0.00,,SKC,0.00,VWS V14.01,2013-07-13 17:52:00,
2013-07-13 13:57:00,85.6,51.5,30.30,North,0,0.0,0.0,31,0.00,,SKC,0.00,VWS V14.01,2013-07-13 17:57:00,
2013-07-13 14:02:00,86.0,51.9,30.30,North,0,0.0,0.0,31,0.00,,SKC,0.00,VWS V14.01,2013-07-13 18:02:00,
2013-07-13 14:07:00,85.8,50.8,30.30,North,0,0.0,0.0,30,0.00,,SKC,0.00,VWS V14.01,2013-07-13 18:07:00,
2013-07-13 14:12:00,85.4,52.2,30.30,North,0,0.0,0.0,32,0.00,,SKC,0.00,VWS V14.01,2013-07-13 18:12:00,
2013-07-13 14:17:00,86.1,54.5,30.30,North,0,0.0,0.0,34,0.00,,SKC,0.00,VWS V14.01,2013-07-13 18:17:00,
2013-07-13 14:22:00,86.3,53.8,30.30,North,0,0.0,0.0,33,0.00,,SKC,0.00,VWS V14.01,2013-07-13 18:22:00,
2013-07-13 14:27:00,86.1,52.0,30.30,North,0,0.0,0.0,31,0.00,,SKC,0.00,VWS V14.01,2013-07-13 18:27:00,
2013-07-13 14:32:00,86.3,53.0,30.30,North,0,0.0,0.0,32,0.00,,SKC,0.00,VWS V14.01,2013-07-13 18:32:00,
2013-07-13 14:37:00,86.7,54.2,30.30,North,0,0.0,0.0,33,0.00,,SKC,0.00,VWS V14.01,2013-07-13 18:37:00,
2013-07-13 14:42:00,86.9,50.8,30.30,North,0,0.0,0.0,29,0.00,,SKC,0.00,VWS V14.01,2013-07-13 18:42:00,
2013-07-13 14:47:00,86.3,51.2,30.30,North,0,0.0,0.0,30,0.00,,SKC,0.00,VWS V14.01,2013-07-13 18:47:00,
2013-07-13 14:52:00,86.1,51.1,30.30,North,0,0.0,0.0,30,0.00,,SKC,0.00,VWS V14.01,2013-07-13 18:52:00,
2013-07-13 14:57:00,86.0,51.0,30.30,North,0,0.0,0.0,30,0.00,,SKC,0.00,VWS V14.01,2013-07-13 18:57:00,
2013-07-13 15:02:00,86.0,51.9,30.30,North,0,0.0,0.0,31,0.00,,SKC,0.00,VWS V14.01,2013-07-13 19:02:00,
2013-07-13 15:07:00,86.5,54.0,30.30,North,0,0.0,0.0,33,0.00,,SKC,0.00,VWS V14.01,2013-07-13 19:07:00,
2013-07-13 15:12:00,86.3,52.1,30.30,North,0,0.0,0.0,31,0.00,,SKC,0.00,VWS V14.01,2013-07-13 19:12:00,
2013-07-13 15:17:00,86.3,52.1,30.30,North,0,0.0,0.0,31,0.00,,SKC,0.00,VWS V14.01,2013-07-13 19:17:00,
2013-07-13 15:22:00,86.1,52.8,30.30,North,0,0.0,0.0,32,0.00,,SKC,0.00,VWS V14.01,2013-07-13 19:22:00,
2013-07-13 15:27:00,86.5,52.3,30.30,North,0,0.0,0.0,31,0.00,,SKC,0.00,VWS V14.01,2013-07-13 19:27:00,
2013-07-13 15:32:00,86.7,52.5,30.30,North,0,0.0,0.0,31,0.00,,SKC,0.00,VWS V14.01,2013-07-13 19:32:00,
2013-07-13 15:37:00,86.7,52.5,30.30,North,0,0.0,0.0,31,0.00,,SKC,0.00,VWS V14.01,2013-07-13 19:37:00,
2013-07-13 15:42:00,86.5,51.4,30.30,North,0,0.0,0.0,30,0.00,,SKC,0.00,VWS V14.01,2013-07-13 19:42:00,
2013-07-13 16:00:00,86.3,51.2,30.29,North,0,0.0,0.0,30,0.00,,SKC,0.00,VWS V14.01,2013-07-13 20:00:00,
2013-07-13 16:15:00,86.3,53.0,30.29,North,0,0.0,0.0,32,0.00,,SKC,0.00,VWS V14.01,2013-07-13 20:15:00,
2013-07-13 16:30:00,84.9,54.2,30.29,North,0,0.0,0.0,35,0.00,,SKC,0.00,VWS V14.01,2013-07-13 20:30:00,
2013-07-13 16:45:00,80.2,53.7,30.29,North,0,0.0,0.0,40,0.00,,SKC,0.00,VWS V14.01,2013-07-13 20:45:00,
2013-07-13 17:00:00,81.3,55.4,30.28,North,0,0.0,0.0,41,0.00,,SKC,0.00,VWS V14.01,2013-07-13 21:00:00,
2013-07-13 17:15:00,82.7,56.6,30.29,North,0,0.0,0.0,41,0.00,,SKC,0.00,VWS V14.01,2013-07-13 21:15:00,
2013-07-13 17:30:00,83.1,57.0,30.28,North,0,0.0,0.0,41,0.00,,SKC,0.00,VWS V14.01,2013-07-13 21:30:00,
2013-07-13 17:45:00,83.6,57.4,30.29,North,0,0.0,0.0,41,0.00,,SKC,0.00,VWS V14.01,2013-07-13 21:45:00,
2013-07-13 18:00:00,83.1,57.7,30.29,North,0,0.0,0.0,42,0.00,,SKC,0.00,VWS V14.01,2013-07-13 22:00:00,
2013-07-13 18:15:00,82.9,57.5,30.29,North,0,0.0,0.0,42,0.00,,SKC,0.00,VWS V14.01,2013-07-13 22:15:00,
2013-07-13 18:30:00,83.1,58.3,30.28,North,0,0.0,0.0,43,0.00,,SKC,0.00,VWS V14.01,2013-07-13 22:30:00,
2013-07-13 18:45:00,82.7,58.0,30.29,North,0,0.0,0.0,43,0.00,,SKC,0.00,VWS V14.01,2013-07-13 22:45:00,
2013-07-13 19:00:00,82.0,57.3,30.29,North,0,0.0,0.0,43,0.00,,SKC,0.00,VWS V14.01,2013-07-13 23:00:00,
2013-07-13 19:15:00,81.8,57.1,30.29,North,0,0.0,0.0,43,0.00,,SKC,0.00,VWS V14.01,2013-07-13 23:15:00,
2013-07-13 19:30:00,81.8,58.4,30.29,North,0,0.0,0.0,45,0.00,,SKC,0.00,VWS V14.01,2013-07-13 23:30:00,
2013-07-13 19:45:00,81.5,57.5,30.29,North,0,0.0,0.0,44,0.00,,SKC,0.00,VWS V14.01,2013-07-13 23:45:00,
2013-07-13 20:00:00,80.2,57.6,30.29,North,0,0.0,0.0,46,0.00,,SKC,0.00,VWS V14.01,2013-07-14 00:00:00,
2013-07-13 20:15:00,78.9,57.6,30.29,North,0,0.0,0.0,48,0.00,,SKC,0.00,VWS V14.01,2013-07-14 00:15:00,
2013-07-13 20:30:00,77.9,57.2,30.29,North,0,0.0,0.0,49,0.00,,SKC,0.00,VWS V14.01,2013-07-14 00:30:00,
2013-07-13 20:45:00,76.4,57.0,30.29,North,0,0.0,0.0,51,0.00,,SKC,0.00,VWS V14.01,2013-07-14 00:45:00,
2013-07-13 21:00:00,75.3,57.0,30.30,North,0,0.0,0.0,53,0.00,,SKC,0.00,VWS V14.01,2013-07-14 01:00:00,
2013-07-13 21:15:00,74.4,57.2,30.30,North,0,0.0,0.0,55,0.00,,SKC,0.00,VWS V14.01,2013-07-14 01:15:00,
2013-07-13 21:30:00,72.8,56.7,30.30,North,0,0.0,0.0,57,0.00,,SKC,0.00,VWS V14.01,2013-07-14 01:30:00,
2013-07-13 21:45:00,71.4,56.3,30.31,North,0,0.0,0.0,59,0.00,,SKC,0.00,VWS V14.01,2013-07-14 01:45:00,
2013-07-13 22:00:00,69.9,55.8,30.32,North,0,0.0,0.0,61,0.00,,SKC,0.00,VWS V14.01,2013-07-14 02:00:00,
2013-07-13 22:15:00,68.9,55.4,30.32,North,0,0.0,0.0,62,0.00,,SKC,0.00,VWS V14.01,2013-07-14 02:15:00,
2013-07-13 22:30:00,67.6,55.0,30.32,North,0,0.0,0.0,64,0.00,,SKC,0.00,VWS V14.01,2013-07-14 02:30:00,
2013-07-13 22:45:00,66.5,54.8,30.33,North,0,0.0,0.0,66,0.00,,SKC,0.00,VWS V14.01,2013-07-14 02:45:00,
2013-07-13 23:00:00,65.8,54.1,30.33,North,0,0.0,0.0,66,0.00,,SKC,0.00,VWS V14.01,2013-07-14 03:00:00,
2013-07-13 23:15:00,64.7,53.9,30.33,North,0,0.0,0.0,68,0.00,,SKC,0.00,VWS V14.01,2013-07-14 03:15:00,
2013-07-13 23:30:00,64.0,53.2,30.34,North,0,0.0,0.0,68,0.00,,SKC,0.00,VWS V14.01,2013-07-14 03:30:00,
2013-07-13 23:45:00,63.8,53.0,30.33,North,0,0.0,0.0,68,0.00,,SKC,0.00,VWS V14.01,2013-07-14 03:45:00,